Weather in Lazavka

Russia / Oryol Oblast     52°52′52″N   37°40′03″E
temp.,
°C
wind,
m/s
gust,
m/s
humid.,
%
clouds,
%
prec.,
mm/h
press.,
hPa
HPBL,
m
10 may, mon
mon1000:00+3nw410885 0.0 1021211
03:00+3nnw412855 0.0 1023252
06:00+4nnw614790 0.0 1024381
09:00+9n813604 0.0 10251369
12:00+11n9124471 0.0 10241507
15:00+12nne91251100 0.0 10231555
18:00+10nne81461100 0.0 10231089
21:00+10nne81564100 0.0 1023736
11 may, tue
tue1100:00+9nne9187499 0.0 1023576
03:00+8nne61585100 0.0 1022457
06:00+8nne7178798 0.0 1022534
09:00+12ne914808 0.0 1021559
12:00+17ene10137198 0.0 10211285
15:00+10se41191100 0.9 1023497
18:00+12ese59729 0.4 10241008
21:00+8ese38830 0.4 1026181
12 may, wed
wed1200:00+6ese35920 0.0 1027104
03:00+5e229335 0.0 102716
06:00+6ne3893100 0.0 1026213
09:00+11ne5774100 0.0 1023717
12:00+8e2393100 2.4 1022229
15:00+8ssw3389100 7.6 1021354
18:00+10se458018 0.2 1020574
21:00+8e51391100 0.2 1020423
13 may, thu
thu1300:00+9e71692100 0.1 1019487
03:00+9ese51096100 0.8 1019388
06:00+9ese3797100 0.4 1019190
09:00+14sse57794 0.7 1018580
12:00+18s576575 0.2 10181581
15:00+18sse466952 0.4 10181071
18:00+18sse357356 0.2 1018598
21:00+14se3381100 0.2 101825
14 may, fri
fri1400:00+13e3380100 0.0 101843
03:00+12e3588100 0.0 101892
06:00+13ese4109461 0.0 1017226
09:00+18se6117897 0.0 1016525
12:00+22se81167100 0.0 10151099
15:00+23se71165100 0.0 10141301
18:00+22sse61271100 0.0 1013664
21:00+19sse61482100 0.9 1013323